Погода в Гудермесе

Россия / Чеченская Республика     43°21′06″N   46°06′12″E
темп.,
°C
ветер,
м/с
пор.,
м/с
влажн.,
%
обл.,
%
осадки,
мм/ч
давл.,
гПа
погр.,
м
14 мая, пт
пт1400:00+14вюв118839 0.0 101416
03:00+14вюв11881 0.0 101311
06:00+16вюв01815 0.0 101450
09:00+22ссв22634 0.0 1013373
12:00+26св33520 0.0 1012655
15:00+30св23411 0.0 1011922
18:00+26ю116225 0.0 101035
21:00+18ююв226084 0.0 101123
15 мая, сб
сб1500:00+17ююз11540 0.0 101111
03:00+16ююз22580 0.0 101111
06:00+19ююз11620 0.0 101223
09:00+25сз11470 0.0 1013415
12:00+28всв22410 0.0 1012925
15:00+29св33390 0.0 10111039
18:00+25ссв2254100 0.0 101153
21:00+20ю1161100 0.0 101212
16 мая, вс
вс1600:00+19ю117072 0.0 101113
03:00+17юв117218 0.0 101011
06:00+19юз01705 0.0 101046
09:00+24ссв21553 0.0 1010452
12:00+28св34460 0.0 1008806
15:00+31всв44350 0.0 1005962
18:00+26всв23550 0.0 100488
21:00+21ююз22625 0.0 100614
17 мая, пн
пн1700:00+18ю22524 0.0 100615
03:00+17ю22375 0.0 100514
06:00+19ююв11488 0.0 100622
09:00+25св22465 0.0 1005385
12:00+29св333796 0.0 1005681
15:00+30св43360 0.0 1004673
18:00+25с125941 0.0 100459
21:00+19зюз236142 0.0 100746
18 мая, вт
вт1800:00+19зюз377182 0.0 1008168
03:00+19юз227898 0.0 100841
06:00+20зюз497779 0.0 1009545
09:00+23з676076 0.0 10101133
12:00+24зсз786099 0.1 10101455
15:00+20зюз6983100 2.8 1013706
18:00+18юз5891100 3.0 1014386
21:00+16ююз3487100 3.0 101577